Weather History for Port Heiden, AK

Change the Weather History Date:

Sunday, February 23, 2014

  Actual Average Record
Temperature  
Mean Temperature 40 °F -  
Max Temperature 42 °F 31 °F 46 °F (2003)
Min Temperature 37 °F 22 °F 3 °F (2007)
Degree Days  
Heating Degree Days 26    
Moisture  
Dew Point 28 °F    
Average Humidity 65    
Maximum Humidity 70    
Minimum Humidity 49    
Precipitation  
Precipitation 0.00 in - - ()
Sea Level Pressure  
Sea Level Pressure 29.41 in    
Wind  
Wind Speed 33 mph (ESE)    
Max Wind Speed 56 mph    
Max Gust Speed 71 mph    
Visibility 9 miles    
Events      
Averages and records for this station are not official NWS values.
T = Trace of Precipitation, MM = Missing Value Source: NWS Daily Summary

Daily Weather History Graph

Daily Weather History Graph

Search for Another Location

Airport:

Trip Planner

Search our weather history database for the weather conditions in past years. The results will help you decide how hot, cold, wet, or windy it might be!

Date:

Astronomy

Feb. 23, 2014 Rise Set
Actual Time 8:42 AM AKST 6:54 PM AKST
Civil Twilight 8:03 AM AKST 7:33 PM AKST
Nautical Twilight 7:19 AM AKST 8:17 PM AKST
Astronomical Twilight 6:35 AM AKST 9:01 PM AKST
Moon 4:30 AM AKST (2/23) 12:28 PM AKST (2/23)
Length of Visible Light 11h 30m
Length of Day
10h 12m
Last Quarter, 37% of the Moon is Illuminated
Feb 23
Last Quarter
Feb 28
New
Mar 8
First Quarter
Mar 16
Full
Mar 23
Last Quarter

Hourly Weather History & Observations

Time (AKST) Temp. Windchill Dew Point Humidity Pressure Visibility Wind Dir Wind Speed Gust Speed Precip Events Conditions
12:16 AM - - - N/A% 29.26 in 7.0 mi ESE 39.1 mph 55.2 mph N/A   Overcast
12:36 AM - - - N/A% 29.25 in 6.0 mi ESE 40.3 mph 55.2 mph N/A   Overcast
12:56 AM 41.0 °F 28.0 °F 30.2 °F 65% 29.23 in 7.0 mi ESE 42.6 mph 52.9 mph N/A   Mostly Cloudy
1:16 AM 39.2 °F 25.2 °F 30.2 °F 70% 29.21 in 5.0 mi ESE 44.9 mph 55.2 mph N/A   Overcast
1:36 AM 39.2 °F 25.2 °F 30.2 °F 70% 29.22 in 5.0 mi ESE 44.9 mph 57.5 mph N/A   Overcast
1:56 AM 39.2 °F 24.8 °F 30.2 °F 70% 29.20 in 6.0 mi ESE 48.3 mph 56.4 mph N/A   Overcast
2:16 AM 39.2 °F 24.9 °F 30.2 °F 70% 29.17 in 9.0 mi ESE 47.2 mph 59.8 mph N/A   Overcast
2:36 AM 39.2 °F 24.0 °F 30.2 °F 70% 29.12 in 5.0 mi ESE 55.2 mph 71.3 mph N/A   Mostly Cloudy
3:16 AM 39.2 °F 23.9 °F 30.2 °F 70% 29.13 in 5.0 mi ESE 56.4 mph 69.0 mph N/A   Scattered Clouds
3:36 AM 39.2 °F 24.7 °F 30.2 °F 70% 29.16 in 8.0 mi ESE 49.5 mph 67.9 mph N/A   Mostly Cloudy
3:56 AM 39.2 °F 25.1 °F 30.2 °F 70% 29.19 in 7.0 mi ESE 46.0 mph 64.4 mph N/A   Overcast
4:16 AM 39.2 °F 25.4 °F 30.2 °F 70% 29.22 in 9.0 mi ESE 43.7 mph 58.7 mph N/A   Overcast
4:36 AM 39.2 °F 25.2 °F 28.4 °F 65% 29.23 in 9.0 mi ESE 44.9 mph 55.2 mph N/A   Overcast
4:56 AM 39.2 °F 25.7 °F 28.4 °F 65% 29.24 in 9.0 mi ESE 41.4 mph 54.1 mph N/A   Overcast
5:16 AM 39.2 °F 25.4 °F 30.2 °F 70% 29.25 in 10.0 mi ESE 43.7 mph 51.8 mph N/A   Overcast
5:36 AM 37.4 °F 23.3 °F 28.4 °F 70% 29.25 in 8.0 mi ESE 40.3 mph 57.5 mph N/A   Overcast
5:56 AM 37.4 °F 24.0 °F 28.4 °F 70% 29.28 in 8.0 mi East 35.7 mph 50.6 mph N/A   Overcast
6:16 AM - - - N/A% 29.30 in 9.0 mi East 33.4 mph 48.3 mph N/A   Overcast
6:36 AM 37.4 °F 26.1 °F 28.4 °F 70% 29.33 in 10.0 mi East 24.2 mph 39.1 mph N/A   Overcast
6:56 AM 37.4 °F 25.4 °F 28.4 °F 70% 29.34 in 10.0 mi East 27.6 mph 43.7 mph N/A   Mostly Cloudy
7:16 AM 37.4 °F 25.4 °F 28.4 °F 70% 29.34 in 10.0 mi ESE 27.6 mph 39.1 mph N/A   Mostly Cloudy
7:36 AM 37.4 °F 25.2 °F 28.4 °F 70% 29.34 in 10.0 mi East 28.8 mph 36.8 mph N/A   Mostly Cloudy
7:56 AM 37.4 °F 25.0 °F 28.4 °F 70% 29.35 in 10.0 mi ESE 29.9 mph 38.0 mph N/A   Mostly Cloudy
8:16 AM - - - N/A% 29.34 in 10.0 mi ESE 24.2 mph 39.1 mph N/A   Scattered Clouds
8:36 AM - - - N/A% 29.35 in 10.0 mi ESE 34.5 mph 47.2 mph N/A   Partly Cloudy
8:56 AM - - - N/A% 29.37 in 10.0 mi ESE 32.2 mph 43.7 mph N/A   Partly Cloudy
9:16 AM - - - N/A% 29.37 in 10.0 mi ESE 27.6 mph 44.9 mph N/A   Clear
9:36 AM - - - N/A% 29.39 in 10.0 mi ESE 26.5 mph 44.9 mph N/A   Clear
9:56 AM - - - N/A% 29.40 in 10.0 mi ESE 26.5 mph 42.6 mph N/A   Partly Cloudy
10:16 AM 37.4 °F 24.0 °F 28.4 °F 70% 29.41 in 10.0 mi ESE 35.7 mph 40.3 mph N/A   Mostly Cloudy
10:36 AM - - - N/A% 29.42 in 10.0 mi East 31.1 mph 42.6 mph N/A   Scattered Clouds
10:56 AM 39.2 °F 27.2 °F 28.4 °F 65% 29.43 in 10.0 mi East 31.1 mph 44.9 mph N/A   Mostly Cloudy
11:16 AM 39.2 °F 27.0 °F 28.4 °F 65% 29.42 in 10.0 mi ESE 32.2 mph 44.9 mph N/A   Mostly Cloudy
11:36 AM 39.2 °F 26.5 °F 28.4 °F 65% 29.42 in 10.0 mi ESE 35.7 mph 47.2 mph N/A   Mostly Cloudy
11:56 AM 41.0 °F 30.5 °F 28.4 °F 61% 29.43 in 10.0 mi East 26.5 mph 43.7 mph N/A   Partly Cloudy
12:16 PM 41.0 °F 30.5 °F 28.4 °F 61% 29.45 in 10.0 mi East 26.5 mph 35.7 mph N/A   Mostly Cloudy
12:36 PM 41.0 °F 31.1 °F 28.4 °F 61% 29.46 in 10.0 mi East 23.0 mph 41.4 mph N/A   Overcast
12:56 PM 42.8 °F 32.9 °F 28.4 °F 57% 29.48 in 10.0 mi East 26.5 mph 39.1 mph N/A   Overcast
1:16 PM 41.0 °F 31.6 °F 28.4 °F 61% 29.49 in 10.0 mi East 20.7 mph 36.8 mph N/A   Overcast
1:36 PM 42.8 °F 33.1 °F 28.4 °F 57% 29.49 in 10.0 mi East 25.3 mph 34.5 mph N/A   Overcast
1:56 PM 39.2 °F 28.7 °F 28.4 °F 65% 29.50 in 10.0 mi East 23.0 mph 34.5 mph N/A   Overcast
2:16 PM 39.2 °F 29.3 °F 26.6 °F 61% 29.51 in 10.0 mi ENE 20.7 mph 32.2 mph N/A   Overcast
2:36 PM 39.2 °F 28.7 °F 26.6 °F 61% 29.51 in 10.0 mi East 23.0 mph 34.5 mph N/A   Overcast
2:56 PM 39.2 °F 29.6 °F 26.6 °F 61% 29.52 in 10.0 mi ENE 19.6 mph 26.5 mph N/A   Overcast
3:16 PM 39.2 °F 29.8 °F 26.6 °F 61% 29.52 in 10.0 mi East 18.4 mph 26.5 mph N/A   Overcast
3:36 PM 37.4 °F 25.9 °F 26.6 °F 65% 29.51 in 10.0 mi ENE 25.3 mph 31.1 mph N/A   Mostly Cloudy
3:56 PM 37.4 °F 26.4 °F 26.6 °F 65% 29.51 in 10.0 mi East 23.0 mph 34.5 mph N/A   Overcast
4:16 PM 37.4 °F 24.8 °F 26.6 °F 65% 29.51 in 10.0 mi ENE 31.1 mph - N/A   Overcast
4:36 PM 37.4 °F 26.4 °F 26.6 °F 65% 29.51 in 10.0 mi East 23.0 mph 35.7 mph N/A   Overcast
4:56 PM 37.4 °F 26.1 °F 26.6 °F 65% 29.50 in 10.0 mi East 24.2 mph 32.2 mph N/A   Overcast
5:16 PM 37.4 °F 26.4 °F 26.6 °F 65% 29.49 in 10.0 mi East 23.0 mph 31.1 mph N/A   Overcast
5:36 PM 37.4 °F 26.6 °F 26.6 °F 65% 29.49 in 10.0 mi East 21.9 mph 31.1 mph N/A   Overcast
5:56 PM 37.4 °F 27.2 °F 26.6 °F 65% 29.50 in 10.0 mi East 19.6 mph 29.9 mph N/A   Overcast
6:16 PM 37.4 °F 26.6 °F 26.6 °F 65% 29.50 in 10.0 mi ESE 21.9 mph 27.6 mph N/A   Overcast
6:36 PM 37.4 °F 29.3 °F 26.6 °F 65% 29.52 in 10.0 mi East 12.7 mph 26.5 mph N/A   Overcast
6:56 PM 37.4 °F 28.5 °F 26.6 °F 65% 29.52 in 10.0 mi East 15.0 mph 20.7 mph N/A   Overcast
7:16 PM 37.4 °F 28.2 °F 26.6 °F 65% 29.53 in 10.0 mi East 16.1 mph 20.7 mph N/A   Overcast
7:36 PM 37.4 °F 29.3 °F 26.6 °F 65% 29.54 in 10.0 mi East 12.7 mph 19.6 mph N/A   Overcast
7:56 PM 37.4 °F 27.5 °F 26.6 °F 65% 29.53 in 10.0 mi East 18.4 mph 24.2 mph N/A   Overcast
8:16 PM 37.4 °F 28.2 °F 26.6 °F 65% 29.54 in 10.0 mi East 16.1 mph - N/A   Overcast
8:36 PM 37.4 °F 26.4 °F 26.6 °F 65% 29.53 in 10.0 mi East 23.0 mph 27.6 mph N/A   Overcast
8:56 PM 37.4 °F 27.8 °F 26.6 °F 65% 29.53 in 10.0 mi ESE 17.3 mph 28.8 mph N/A   Overcast
9:16 PM 37.4 °F 27.5 °F 26.6 °F 65% 29.53 in 10.0 mi ESE 18.4 mph 31.1 mph N/A   Overcast
9:36 PM 37.4 °F 26.1 °F 26.6 °F 65% 29.53 in 10.0 mi East 24.2 mph 29.9 mph N/A   Overcast
9:56 PM 37.4 °F 27.8 °F 26.6 °F 65% 29.53 in 10.0 mi ESE 17.3 mph 29.9 mph N/A   Overcast
10:16 PM 39.2 °F 30.8 °F 26.6 °F 61% 29.54 in 10.0 mi ESE 15.0 mph 32.2 mph N/A   Overcast
10:36 PM 39.2 °F 32.5 °F 26.6 °F 61% 29.55 in 10.0 mi ESE 10.4 mph 24.2 mph N/A   Overcast
10:56 PM 39.2 °F 32.5 °F 26.6 °F 61% 29.56 in 10.0 mi ESE 10.4 mph 25.3 mph N/A   Overcast
11:16 PM 39.2 °F 35.9 °F 26.6 °F 61% 29.56 in 10.0 mi East 4.6 mph - N/A   Overcast
11:36 PM 39.2 °F 37.0 °F 26.6 °F 61% 29.56 in 10.0 mi SSE 3.5 mph 17.3 mph N/A   Overcast
11:56 PM 39.2 °F 35.9 °F 26.6 °F 61% 29.56 in 10.0 mi SSW 4.6 mph - N/A   Overcast